Wolf Creek, OR

3:37 AM PDT on August 26, 2016 (GMT -0700)
Sexton Summit

Weather History for KSXT - November, 2013

Change the Weather History Date:

Friday, November 15, 2013

  Actual Average Record
Temperature  
Mean Temperature 34 °F -  
Max Temperature 37 °F 43 °F 66 °F (2008)
Min Temperature 32 °F 35 °F 28 °F (2015)
Degree Days  
Heating Degree Days 30    
Moisture  
Dew Point 33 °F    
Average Humidity 97    
Maximum Humidity 100    
Minimum Humidity 86    
Precipitation  
Precipitation 0.00 in - - ()
Sea Level Pressure  
Sea Level Pressure 29.95 in    
Wind  
Wind Speed 6 mph (North)    
Max Wind Speed 13 mph    
Max Gust Speed -    
Visibility 4 miles    
Events Fog , Snow    
Averages and records for this station are not official NWS values.
T = Trace of Precipitation, MM = Missing Value Source: NWS Daily Summary

Daily Weather History Graph

Daily Weather History Graph

Search for Another Location

Airport or City:

Trip Planner

Search our weather history database for the weather conditions in past years. The results will help you decide how hot, cold, wet, or windy it might be!

Date:

Astronomy

Nov. 15, 2013 Rise Set
Actual Time 7:05 AM PST 4:50 PM PST
Civil Twilight 6:34 AM PST 5:20 PM PST
Nautical Twilight 6:00 AM PST 5:55 PM PST
Astronomical Twilight 5:27 AM PST 6:28 PM PST
Moon 3:52 PM PST (11/15) 5:05 AM PST (11/15)
Length of Visible Light 10h 46m
Length of Day
9h 45m
Waxing Gibbous, 97% of the Moon is Illuminated
Nov 15
Waxing Gibbous
Nov 17
Full
Nov 25
Last Quarter
Dec 2
New
Dec 9
First Quarter

Hourly Weather History & Observations

Time (PST) Temp. Windchill Dew Point Humidity Pressure Visibility Wind Dir Wind Speed Gust Speed Precip Events Conditions
12:03 AM 33.1 °F 26.9 °F 33.1 °F 100% 30.03 in 3.0 mi NNE 6.9 mph - N/A   Overcast
12:08 AM 33.1 °F 26.1 °F 33.1 °F 100% 30.03 in 2.5 mi North 8.1 mph - N/A   Overcast
12:15 AM 33.1 °F 25.5 °F 33.1 °F 100% 30.02 in 1.2 mi North 9.2 mph - N/A   Overcast
12:25 AM 33.1 °F 25.5 °F 33.1 °F 100% 30.02 in 2.0 mi North 9.2 mph - N/A   Overcast
12:45 AM 33.1 °F 25.5 °F 33.1 °F 100% 30.01 in 3.0 mi NNE 9.2 mph - N/A   Overcast
12:56 AM 33.1 °F 25.5 °F 33.1 °F 100% 30.06 in 3.0 mi NNE 9.2 mph - N/A   Overcast
1:05 AM 33.1 °F 26.1 °F 33.1 °F 100% 30.01 in 2.5 mi NNE 8.1 mph - N/A   Overcast
1:13 AM 33.1 °F 25.5 °F 33.1 °F 100% 30.01 in 1.5 mi North 9.2 mph - N/A   Overcast
1:21 AM 33.1 °F 25.5 °F 33.1 °F 100% 30.00 in 1.0 mi NNE 9.2 mph - N/A   Overcast
1:34 AM 33.1 °F 25.5 °F 33.1 °F 100% 30.00 in 1.8 mi NNE 9.2 mph - N/A   Overcast
1:40 AM 33.1 °F 26.1 °F 33.1 °F 100% 30.00 in 1.2 mi NNE 8.1 mph - N/A   Overcast
1:53 AM 33.8 °F 26.4 °F 33.8 °F 100% 30.00 in 1.8 mi NNE 9.2 mph - N/A   Overcast
1:56 AM 33.1 °F 26.1 °F 33.1 °F 100% 30.05 in 3.0 mi NNE 8.1 mph - N/A   Overcast
2:12 AM 33.1 °F 25.5 °F 33.1 °F 100% 29.99 in 4.0 mi North 9.2 mph - N/A   Overcast
2:17 AM 33.1 °F 26.1 °F 33.1 °F 100% 29.99 in 1.5 mi North 8.1 mph - N/A   Overcast
2:20 AM 33.1 °F 25.5 °F 33.1 °F 100% 29.99 in 0.8 mi North 9.2 mph - N/A   Overcast
2:53 AM 33.8 °F 28.6 °F 33.8 °F 100% 29.99 in 0.2 mi North 5.8 mph - N/A Fog Fog
2:56 AM 33.1 °F 27.7 °F 33.1 °F 100% 30.04 in 0.2 mi North 5.8 mph - N/A Fog Fog
3:19 AM 33.1 °F 25.5 °F 33.1 °F 100% 29.99 in 1.0 mi NNE 9.2 mph - N/A   Overcast
3:31 AM 33.1 °F 25.5 °F 33.1 °F 100% 29.99 in 0.2 mi NNE 9.2 mph - N/A Fog Fog
3:49 AM 33.1 °F 26.9 °F 33.1 °F 100% 29.98 in 1.0 mi NNE 6.9 mph - N/A   Overcast
3:56 AM 33.1 °F 26.1 °F 33.1 °F 100% 30.03 in 0.8 mi North 8.1 mph - N/A   Overcast
4:03 AM 33.1 °F 26.9 °F 33.1 °F 100% 29.98 in 0.8 mi NNE 6.9 mph - N/A   Overcast
4:21 AM 33.1 °F 26.9 °F 33.1 °F 100% 29.98 in 0.2 mi North 6.9 mph - N/A Fog Fog
4:34 AM 33.1 °F 28.7 °F 33.1 °F 100% 29.98 in 0.2 mi NNW 4.6 mph - N/A Fog Fog
4:56 AM 33.1 °F 27.7 °F 33.1 °F 100% 30.04 in 0.2 mi North 5.8 mph - N/A Fog Fog
5:41 AM 33.1 °F 26.9 °F 33.1 °F 100% 29.98 in 0.2 mi North 6.9 mph - N/A Fog Fog
5:53 AM 33.8 °F 27.0 °F 33.8 °F 100% 29.98 in 0.2 mi North 8.1 mph - N/A Fog Fog
5:56 AM 33.1 °F 26.9 °F 33.1 °F 100% 30.05 in 0.2 mi North 6.9 mph - N/A Fog Fog
6:18 AM 33.1 °F 28.7 °F 33.1 °F 100% 29.99 in 0.2 mi North 4.6 mph - N/A Fog Fog
6:28 AM 33.1 °F 27.7 °F 33.1 °F 100% 29.99 in 0.2 mi North 5.8 mph - N/A Fog Fog
6:56 AM 33.1 °F 27.7 °F 33.1 °F 100% 30.05 in 0.5 mi Variable 5.8 mph - N/A Fog Fog
7:10 AM 33.1 °F 27.7 °F 33.1 °F 100% 29.99 in 0.2 mi Variable 5.8 mph - N/A Fog Fog
7:56 AM 33.1 °F 28.7 °F 33.1 °F 100% 30.05 in 0.2 mi Variable 4.6 mph - N/A Fog Fog
8:15 AM 33.1 °F 30.0 °F 33.1 °F 100% 29.99 in 0.2 mi Variable 3.5 mph - N/A Fog Fog
8:40 AM 33.1 °F 28.7 °F 33.1 °F 100% 29.99 in 1.0 mi Variable 4.6 mph - N/A   Overcast
8:56 AM 33.1 °F 27.7 °F 33.1 °F 100% 30.06 in 0.8 mi NNE 5.8 mph - N/A   Overcast
9:05 AM 34.0 °F 28.8 °F 33.1 °F 96% 29.99 in 0.5 mi NNE 5.8 mph - N/A Fog Fog
9:10 AM 34.0 °F 28.0 °F 34.0 °F 100% 29.98 in 1.0 mi NNE 6.9 mph - N/A   Overcast
9:12 AM 34.0 °F 28.8 °F 34.0 °F 100% 29.98 in 2.5 mi North 5.8 mph - N/A   Overcast
9:17 AM 34.0 °F 28.8 °F 34.0 °F 100% 29.98 in 7.0 mi NNE 5.8 mph - N/A   Overcast
9:34 AM 34.0 °F - 33.1 °F 96% 29.96 in 9.0 mi Calm Calm - N/A   Overcast
9:46 AM 35.1 °F 32.2 °F 34.0 °F 96% 29.98 in 1.2 mi North 3.5 mph - N/A   Mostly Cloudy
9:49 AM 34.0 °F - 34.0 °F 100% 29.98 in 0.2 mi Calm Calm - N/A Fog Fog
9:56 AM 35.1 °F - 35.1 °F 100% 30.04 in 0.2 mi Calm Calm - N/A Fog Fog
10:04 AM 35.1 °F 32.2 °F 35.1 °F 100% 29.98 in 0.2 mi Variable 3.5 mph - N/A Fog Fog
10:24 AM 35.1 °F 32.2 °F 35.1 °F 100% 29.97 in 0.5 mi Variable 3.5 mph - N/A Fog Fog
10:30 AM 33.1 °F 30.0 °F 32.0 °F 96% 29.95 in 2.0 mi Variable 3.5 mph - N/A   Overcast
10:36 AM 34.0 °F - 33.1 °F 96% 29.95 in 10.0 mi Calm Calm - N/A   Mostly Cloudy
10:56 AM 34.0 °F 31.0 °F 34.0 °F 100% 30.04 in 5.0 mi Variable 3.5 mph - N/A   Mostly Cloudy
10:58 AM 34.0 °F - 34.0 °F 100% 29.97 in 1.8 mi Calm Calm - N/A   Mostly Cloudy
11:01 AM 35.1 °F - 34.0 °F 96% 29.96 in 0.5 mi Calm Calm - N/A Fog Fog
11:08 AM 36.0 °F 33.3 °F 36.0 °F 100% 29.96 in 0.2 mi Variable 3.5 mph - N/A Fog Fog
11:15 AM 34.0 °F 29.8 °F 34.0 °F 100% 29.96 in 1.0 mi Variable 4.6 mph - N/A   Overcast
11:17 AM 35.1 °F 31.0 °F 34.0 °F 96% 29.96 in 1.8 mi Variable 4.6 mph - N/A   Overcast
11:23 AM 35.1 °F 32.2 °F 34.0 °F 96% 29.96 in 3.0 mi Variable 3.5 mph - N/A   Mostly Cloudy
11:44 AM 35.1 °F 32.2 °F 33.1 °F 92% 29.93 in 10.0 mi North 3.5 mph - N/A   Overcast
11:56 AM 37.0 °F 34.5 °F 35.1 °F 93% 29.98 in 10.0 mi Variable 3.5 mph - N/A   Overcast
12:12 PM 37.0 °F 34.5 °F 35.1 °F 93% 29.93 in 10.0 mi Variable 3.5 mph - N/A   Overcast
12:56 PM 37.0 °F - 33.1 °F 86% 29.96 in 10.0 mi Calm Calm - N/A   Overcast
1:14 PM 37.0 °F - 35.1 °F 93% 29.90 in 10.0 mi Calm Calm - N/A   Overcast
1:30 PM 36.0 °F 32.1 °F 34.0 °F 93% 29.90 in 10.0 mi Variable 4.6 mph - N/A   Overcast
1:40 PM 37.0 °F 32.4 °F 33.1 °F 86% 29.90 in 10.0 mi Variable 5.8 mph - N/A   Mostly Cloudy
1:56 PM 36.0 °F - 34.0 °F 93% 29.95 in 10.0 mi North - - N/A   Mostly Cloudy
2:06 PM 36.0 °F 33.3 °F 34.0 °F 93% 29.90 in 10.0 mi Variable 3.5 mph - N/A   Scattered Clouds
2:56 PM 35.1 °F - 32.0 °F 89% 29.92 in 10.0 mi Calm Calm - N/A   Mostly Cloudy
3:56 PM 34.0 °F 28.0 °F 32.0 °F 92% 29.92 in 10.0 mi NNW 6.9 mph - N/A   Overcast
4:56 PM 33.1 °F 28.7 °F 30.0 °F 89% 29.90 in 10.0 mi NNW 4.6 mph - N/A   Mostly Cloudy
5:56 PM 33.1 °F 26.9 °F 30.9 °F 92% 29.91 in 10.0 mi NNW 6.9 mph - N/A   Overcast
6:28 PM 32.0 °F 27.5 °F 30.0 °F 92% 29.83 in 10.0 mi NNW 4.6 mph - N/A   Overcast
6:45 PM 32.0 °F 27.5 °F 30.9 °F 96% 29.83 in 10.0 mi NNW 4.6 mph - N/A   Overcast
6:56 PM 33.1 °F - 30.9 °F 92% 29.89 in 10.0 mi Calm Calm - N/A   Overcast
7:19 PM 33.1 °F 30.0 °F 30.0 °F 89% 29.82 in 10.0 mi NW 3.5 mph - N/A   Overcast
7:52 PM 33.8 °F 30.8 °F 32.0 °F 93% 29.81 in 10.0 mi Variable 3.5 mph - N/A   Overcast
7:56 PM 33.1 °F 30.0 °F 32.0 °F 96% 29.86 in 10.0 mi Variable 3.5 mph - N/A   Overcast
8:06 PM 33.1 °F 30.0 °F 32.0 °F 96% 29.80 in 10.0 mi NNW 3.5 mph - N/A   Overcast
8:19 PM 33.1 °F 30.0 °F 32.0 °F 96% 29.80 in 10.0 mi Variable 3.5 mph - N/A   Overcast
8:56 PM 33.1 °F 28.7 °F 32.0 °F 96% 29.86 in 10.0 mi NW 4.6 mph - N/A   Overcast
9:25 PM 33.1 °F - 32.0 °F 96% 29.80 in 10.0 mi Calm Calm - N/A   Overcast
9:54 PM 33.8 °F - 30.2 °F 87% 29.78 in 10.0 mi Calm Calm - N/A   Overcast
9:56 PM 34.0 °F 29.8 °F 30.9 °F 89% 29.83 in 10.0 mi SW 4.6 mph - N/A   Overcast
10:20 PM 34.0 °F 26.6 °F 30.9 °F 89% 29.76 in 10.0 mi SW 9.2 mph - N/A   Overcast
10:32 PM 33.1 °F 24.4 °F 30.0 °F 89% 29.76 in 10.0 mi SSW 11.5 mph - N/A   Overcast
10:44 PM 33.1 °F 24.4 °F 30.0 °F 89% 29.76 in 10.0 mi SW 11.5 mph - N/A   Overcast
10:56 PM 33.1 °F 24.4 °F 30.9 °F 92% 29.82 in 10.0 mi SW 11.5 mph - N/A   Overcast
11:28 PM 33.1 °F 23.9 °F 32.0 °F 96% 29.76 in 5.0 mi SSW 12.7 mph - N/A   Overcast
11:56 PM 33.1 °F 23.9 °F 32.0 °F 96% 29.80 in 4.0 mi SSW 12.7 mph - 0.00 in Snow Light Snow